Location: North Evanston
(42.0634°N, 87.6976°W)
Time: 13:41:32
(UTC+00:00)

Injun/Solrad 3 - Pass Details

Date: 13 May 2026
Orbit: 867 x 989 km, 66.8° (Epoch: 7 June)

Event Time Altitude Azimuth Distance (km) Brightness Sun altitude
Rises 08:43:25 0° 310° (NW) 3,695 11.0 -17.1°
Reaches altitude 10° 08:47:36 10° 285° (WNW) 2,749 10.1 -16.6°
Enters shadow 08:49:18 13° 269° (W) 2,564 9.8 -16.4°
Maximum altitude 08:50:18 13° 259° (W) 2,532 - -16.2°
Drops below altitude 10° 08:53:00 10° 234° (SW) 2,741 - -15.9°
Sets 08:57:11 0° 208° (SSW) 3,674 - -15.3°
